Regional Weather Roundup
Issued by NWS

Home | Current Version | Previous Version | Text Only | Print | Product List | Glossary Off
Versions: 1 2 3 4 5 6 7 8 9 10 11 12 13 14 15 16 17 18 19 20 21 22 23 24 25 26 27 28 29 30 31 32 33 34 35 36 37 38 39 40 41 42 43 44 45 46 47 48 49 50

000
ASUS45 KBOU 271707
RWRCO

WEATHER ROUNDUP FOR COLORADO
NATIONAL WEATHER SERVICE DENVER/BOULDER CO
1000 AM MST FRI FEB 27 2015

NOTE: "FAIR" INDICATES FEW OR NO CLOUDS BELOW 12000 FEET WITH NO
SIGNIFICANT WEATHER AND/OR OBSTRUCTIONS TO VISIBILITY.

COZ001>005-013-030-031-271800-
...NORTHWEST COLORADO...

CITY           SKY/WX    TMP DP  RH WIND       PRES   REMARKS
CRAIG          PTSUNNY   18  10  71 CALM      29.88F
HAYDEN         SUNNY     18  10  73 CALM      29.85F
MEEKER         CLOUDY    19  14  81 SW3       29.85F
MOUNT WERNER   NOT AVBL
STEAMBOAT SPGS SUNNY     17   8  69 CALM      29.83F
WALDEN         CLOUDY     1  -4  78 CALM      29.79F
$$

COZ006>008-011-271800-
...WEST CENTRAL VALLEYS...

CITY           SKY/WX    TMP DP  RH WIND       PRES   REMARKS
GRAND JUNCTION CLOUDY    31  30  96 S8        29.84F WCI  23
MONTROSE       PTSUNNY   28  22  78 SE3       29.84F
EAGLE          PTSUNNY   28  27  93 CALM      29.84F
RIFLE          CLOUDY    28  18  66 CALM      29.84F
DELTA          LGT SNOW  32  29  88 CALM      29.85S
NUCLA          PTSUNNY   32  25  74 SW5       29.87F WCI  27
$$

COZ017>023-064>068-271800-
...SOUTHWEST COLORADO...

CITY           SKY/WX    TMP DP  RH WIND       PRES   REMARKS
DURANGO        CLOUDY    27  24  89 CALM      29.86S
CORTEZ         CLOUDY    32  25  75 CALM      29.87S
PAGOSA SPRINGS FLURRIES  27  24  89 S6        29.85S WCI  20
TELLURIDE      PTSUNNY   24  11  59 E3        29.79S
WOLF CREEK PAS SNOW       9   9 100 SW26G38   29.76R VSB<1/4 WCI -13
$$

COZ009-010-012-014-032>034-037-058>063-271800-
...CENTRAL COLORADO...

CITY           SKY/WX    TMP DP  RH WIND       PRES   REMARKS
ASPEN          LGT SNOW  24  19  81 N6        29.76S WCI  17
BUENA VISTA    CLOUDY     6  -3  66 CALM      29.84F
COPPER MTN     LGT SNOW  12   5  73 W14       29.67S WCI  -3
BERTHOUD PASS  CLOUDY     1  -6  71 W18       29.65S WCI -19
COTTONWOOD PAS CLOUDY    10   5  79 CALM      29.74S
GUNNISON       SUNNY     18  12  79 E3        29.82S
KREMMLING      SUNNY     18   5  57 CALM      29.84F
LEADVILLE      CLOUDY     9   4  80 CALM      29.71F HAZE
SALIDA         CLOUDY    11   3  71 W3        29.95F
SUNLIGHT       LGT SNOW N/A N/A N/A CALM        N/A
WILKERSON PASS SUNNY     12   9  85 CALM      29.71S
$$

COZ069>075-271800-
...SAN LUIS VALLEY/SANGRE DE CRISTO MOUNTAINS...

CITY           SKY/WX    TMP DP  RH WIND       PRES   REMARKS
ALAMOSA        PTSUNNY   19  12  74 S3        29.83S
LA VETA PASS   SNOW      14   9  79 MISG      29.75S VSB 1/4
SAGUACHE       LGT SNOW  21  14  73 SE3       29.84S
$$

COZ035-036-038>040-271800-
...NORTHERN COLORADO FRONT RANGE...

CITY           SKY/WX    TMP DP  RH WIND       PRES   REMARKS
DENVER INTL AP MOSUNNY   12   3  67 S12       29.99F WCI  -2
DMNS CITY PARK   N/A     15   9  80 NE3       29.99S
AURORA         MOSUNNY   12   1  61 SW8       29.97F WCI   0
FRONT RANGE AP MOSUNNY   16   7  67 S14       29.99F WCI   1
ERIE MUNI ARPT SUNNY    N/A N/A N/A CALM      30.02F
BOULDER MUN AP MOSUNNY   14   9  79 CALM      30.00F
CENTENNIAL     PTSUNNY   11   2  67 S6        29.95F WCI   1
BROOMFIELD     PTSUNNY   10   7  85 N3        29.98F
FORT COLLINS   SUNNY      7   3  85 CALM      30.03F
LONGMONT       SUNNY     20   8  59 N6        30.04F WCI  12
$$

COZ041-046-047-076>085-087-088-271800-
...PIKES PEAK/PALMER DIVIDE AND SOUTHERN FOOTHILLS...

CITY           SKY/WX    TMP DP  RH WIND       PRES   REMARKS
COLO. SPRINGS  LGT SNOW   8   5  87 S12       29.98F FOG     WCI  -7
A. F. ACADEMY  CLOUDY     7   0  72 S13       29.93F HAZE    WCI  -9
ELLICOTT       NOT AVBL
FALCON         LGT SNOW   7   3  86 SE14      29.93F WCI -10
FORT CARSON    SNOW       9   5  85 SE5       29.98F VSB 1/2 WCI   0
LIMON          LGT SNOW   8   5  87 S28       30.06F VSB 3/4 WCI -14
MONUMENT HILL  PTSUNNY    9   1  72 S18       29.87S HAZE    WCI -10
TRINIDAD       SUNNY     15   7  70 E6        29.99F WCI   6
$$

COZ042>045-048>051-090-091-271800-
...NORTHEAST COLORADO...

CITY           SKY/WX    TMP DP  RH WIND       PRES   REMARKS
GREELEY ARPT   MOSUNNY   18   3  53 S9        30.04F WCI   6
AKRON          LGT SNOW  12   7  80 S20G28    30.11F WCI  -6
BURLINGTON     CLOUDY    13   6  74 S21       30.20F HAZE    WCI  -5
WRAY           LGT SNOW  18  11  74 S13       30.25S WCI   4
STERLING       CLOUDY    18  10  73 S18G25    30.16F WCI   2
HOLYOKE        NOT AVBL
FORT MORGAN    CLOUDY    17   7  64 SE24G31   30.10F WCI  -1
$$

COZ086-089-092>099-271800-
...SOUTHEAST COLORADO...

CITY           SKY/WX    TMP DP  RH WIND       PRES   REMARKS
PUEBLO         CLOUDY    16  11  80 CALM      30.07F
LA JUNTA       MOSUNNY   16   9  74 SE21      30.13F WCI  -1
LAMAR          CLOUDY    14   7  73 SE21      30.22F HAZE    WCI  -4
SPRINGFIELD      N/A      9   5  84 SE21      30.19S WCI -11
$$



USA.gov is the U.S. government's official web portal to all federal, state and local government web resources and services.